User: anonymous   Login
Location: Milton
(43.5183°N, 79.8775°W)
Time: 11:07:04
(UTC+00:00)
Language:

ESTCUBE 1 - Orbit

View from above orbital plane
View from above orbital plane
View from above satellite
View from above satellite

Ground track
Ground track

The orbit data is extracted from the following two-line orbital elements,

1 39161U 13021C   24110.16777632  .00005043  00000-0  73934-3 0  9995
2 39161  97.8322 178.4363 0010188  66.4772 293.7507 14.75961539588425
Epoch (UTC): 19 April 2024 04:01:35
Eccentricity: 0.0010188
inclination: 97.8322°
perigee height: 635 km
apogee height: 649 km
right ascension of ascending node: 178.4363°
argument of perigee: 66.4772°
revolutions per day: 14.75961539
mean anomaly at epoch: 293.7507°
orbit number at epoch: 58842

The dashed part of the orbit path shows where the satellite is in the earth's shadow,  

DLR